Regional Weather Roundup
Issued by NWS Portland, ME

Current Version | Previous Version | Text Only | Print | Product List | Glossary On
Versions: 1 2 3 4 5 6 7 8 9 10 11 12 13 14 15 16 17 18 19 20 21 22 23 24 25 26 27 28 29 30 31 32 33 34 35 36 37 38 39 40 41 42 43 44 45 46 47 48 49 50
000
ASUS41 KGYX 220510
RWRGYX
WEATHER ROUNDUP FOR MAINE AND NEW HAMPSHIRE
NATIONAL WEATHER SERVICE GRAY ME
100 AM EDT SAT JUL 22 2017

MEZ002-005-006-010-012-015-018-020-021-024-026-027-029-220600-
MAINE

CITY           SKY/WX    TMP DP  RH WIND       PRES   REMARKS
PORTLAND       CLOUDY    74  62  66 NW6       29.79R
SANFORD          N/A     72  64  76 W6        29.81R
BAR HARBOR     PTCLDY    70  61  73 NW3       29.75S
WISCASSET      CLOUDY    68  63  84 CALM      29.79R
ROCKLAND       MOCLDY    65  61  87 W5        29.76S
FRYEBURG       CLOUDY    72  62  71 W3        29.81S
LEWISTONAUBURN CLOUDY    74  61  63 NW6       29.79S
AUGUSTA        CLOUDY    73  59  61 NW7       29.79R
WATERVILLE     PTCLDY    72  61  68 W5        29.76R
BANGOR         CLEAR     71  59  65 W6        29.76R
GREENVILLE       N/A     64  60  87 N7        29.78S
MILLINOCKET    PTCLDY    60  60 100 CALM      29.78F
HOULTON        CLOUDY    59  57  93 CALM      29.73F
PRESQUE ISLE   CLOUDY    58  56  93 CALM      29.76R
FRENCHVILLE    CLOUDY    55  53  93 W10       29.75S
CARIBOU        LGT RAIN  58  55  90 W5        29.73F
$$

NHZ002-005-008-009-011-012-014-220600-
NEW HAMPSHIRE

CITY           SKY/WX    TMP DP  RH WIND       PRES   REMARKS
PORTSMOUTH     MOCLDY    75  62  64 W10       29.80R
ROCHESTER      PTCLDY    74  61  63 VRB5      29.81R
NASHUA         MOCLDY    71  62  73 CALM      29.84R
MANCHESTER     MOCLDY    77  58  51 W6        29.82R
CONCORD        MOCLDY    75  61  61 W8        29.84R
LACONIA        CLOUDY    71  64  78 W5        29.85R
PLYMOUTH       FAIR      70  60  70 W5        29.84R
BERLIN         CLEAR     61  57  87 CALM      29.85R
WHITEFIELD     PTCLDY    66  59  78 CALM      29.85R
JAFFREY        PTCLDY    72  59  63 W3        29.89R
KEENE          PTCLDY    65  62  90 NE5       29.87R
LEBANON        CLOUDY    64  60  87 S3        29.85S
MT WASHINGTON  FOG       50  50 100 NW43G61     N/A  VSB 0
$$

VTZ005-007-008-220600-
VERMONT

CITY           SKY/WX    TMP DP  RH WIND       PRES   REMARKS
ST JOHNSBURY     N/A     68  65  90 MISG      29.83R
MONTPELIER     PTCLDY    62  61  96 W3        29.91S
BURLINGTON     PTCLDY    70  65  84 CALM      29.84S
$$

MAZ007-012-024-CTZ003-RIZ002-NYZ038-NYZ072-220600-
SOUTHERN NEW ENGLAND AND NY

CITY           SKY/WX    TMP DP  RH WIND       PRES   REMARKS
BOSTON         PTCLDY    79  59  50 W14G22    29.82S
WORCESTER      MOCLDY    72  58  61 NW10      29.89S
NANTUCKET      CLEAR     73  72  96 W14       29.84S
PROVIDENCE     PTCLDY    75  70  84 SW6       29.85S
HARTFORD       PTCLDY    75  67  76 NW7       29.87R
ALBANY         MOCLDY    72  58  61 S3        29.89R
NEW YORK CITY  MOCLDY    88  71  57 W13       29.85F HX  94
$$

ANZ081-ANZ082-ANZ150-NHZ014-MEZ023>029-220600-
COASTAL MARINE OBSERVATIONS

STATION/POSITION TIME  TEMP    WIND        PRES    WAVE
                       AIR SEA DIR/SP/G            HT/PER
                 (UTC) (F)     (DEG/KT/KT) (MB)    (FT/S)
MOUNT DESERT ROC 0500   61                 1007.4R
MATINICUS ROCK   0400   64     270/ 15/ 15 1007.1S
ISLE OF SHOALS   0400   77     260/ 17/ 17 1008.3R
JEFFREYS LEDGE   0406      65                N/A     2/10
CASHES LEDGE BUO 0350   72 69              1007.4    2/ 7
GEORGES BANK BUO 0350   64 62              1009.9    4/ 6
$$

.............KEY..............
   WCI - WIND CHILL
   TC  - TEMPERATURE IN CELSIUS
   VSB - VISIBILITY IN MILES
   HX  - HEAT INDEX
   FAIR- INDICATES FEW OR NO CLOUDS BELOW 12,000 FT, WITH NO
         SIGNIFICANT WEATHER AND/OR OBSTRUCTIONS TO VISIBILITY.






USA.gov is the U.S. government's official web portal to all federal, state and local government web resources and services.